Вернуться в каталог

STARLINK-35551

АктивенСвязьVLEO
NORAD 66200·PAYLOAD·🇺🇸 United States

Запущен Oct 26, 2025 с Cape Canaveral Space Force Station

Loading…

Ближайшие Пролёты (ближайшие 24 часа)

TLE

СвежийSource: CelesTrak SupGP

Эпоха: Sep 15, 2026, 03:18 UTC

1 66200C 25243Z   26258.13798611 -.00027370  00000+0 -80871-3 0  2584
2 66200  53.1592  84.4756 0001162  91.4541 157.7959 15.34402430    19

Отслеживайте STARLINK-35551 в реальном времени с AllMySat

Download on the App Store